This demonstration page uses our WeatherBlox Daily Observations layout. Learn more.

Left ArrowRight Arrow

41.12389, -100.76542

Hourly Observations for October 6, 2022

Temp ( °F °C ) Dew Point ( °F °C ) Humidity (%) Winds ( mph kmh ) Pressure ( in mb ) Visibility ( mi km ) Precip ( " mm )
12:53 am 00:53 Clear 47 8.3 43 6.1 86 86 NNW 3 6 30.22 1023 10 16 0.00 0.00
1:53 am 01:53 Clear 44 6.7 40 4.4 85 85 WNW 5 7 30.22 1023 10 16 0.00 0.00
2:53 am 02:53 Clear 44 6.7 41 5 89 89 NNW 5 7 30.22 1023 10 16 0.00 0.00
3:53 am 03:53 Clear 42 5.6 39 3.9 89 89 WNW 6 9 30.22 1023 10 16 0.00 0.00
4:53 am 04:53 Clear 40 4.4 38 3.3 93 93 NW 6 9 30.22 1024 10 16 0.00 0.00
5:53 am 05:53 Clear 40 4.4 38 3.3 93 93 NW 7 11 30.23 1024 10 16 0.00 0.00
6:53 am 06:53 Clear 41 5 39 3.9 93 93 NW 7 11 30.25 1024 10 16 0.00 0.00
7:53 am 07:53 Sunny 42 5.6 39 3.9 89 89 W 5 7 30.28 1026 10 16 0.00 0.00
8:53 am 08:53 Sunny 48 8.9 43 6.1 83 83 Calm 30.30 1026 10 16 0.00 0.00
9:53 am 09:53 Sunny 57 13.9 49 9.4 74 74 N 7 11 30.32 1027 10 16 0.00 0.00
10:53 am 10:53 Sunny 61 16.1 49 9.4 64 64 NNE 9 15 30.33 1027 10 16 0.00 0.00
11:30 am 11:30 Mostly Cloudy 62 16.7 50 10 65 65 NNE 13 20 30.28 1026 10 16 0.00 0.00
11:53 am 11:53 Cloudy 60 15.6 49 9.4 67 67 NNE 12 19 30.35 1028 10 16 0.00 0.00
12:11 pm 12:11 Cloudy 59 15 49 9.4 69 69 NNE 14 22 30.30 1026 10 16 0.00 0.00
12:53 pm 12:53 Mostly Cloudy 61 16.1 49 9.4 64 64 NNE 9 15 30.35 1028 10 16 0.00 0.00
1:11 pm 13:11 Partly Cloudy 63 17.2 49 9.4 60 60 NNE 14 22 30.28 1025 10 16 0.00 0.00
1:53 pm 13:53 Sunny 63 17.2 48 8.9 58 58 NE 10 17 30.35 1028 10 16 0.00 0.00
2:53 pm 14:53 Sunny 66 18.9 47 8.3 50 50 NE 14 22 30.32 1027 10 16 0.00 0.00
3:53 pm 15:53 Sunny 65 18.3 46 7.8 50 50 NE 14 22 30.33 1027 10 16 0.00 0.00
4:53 pm 16:53 Sunny 63 17.2 44 6.7 50 50 NE 13 20 30.35 1028 10 16 0.00 0.00
5:53 pm 17:53 Sunny 60 15.6 44 6.7 55 55 NE 14 22 30.37 1028 10 16 0.00 0.00
6:53 pm 18:53 Sunny 58 14.4 42 5.6 55 55 NNE 8 13 30.38 1029 10 16 0.00 0.00
7:53 pm 19:53 Clear 53 11.7 42 5.6 66 66 NE 8 13 30.40 1029 10 16 0.00 0.00
8:53 pm 20:53 Clear 51 10.6 33 0.6 50 50 NE 15 24 30.41 1030 10 16 0.00 0.00
9:53 pm 21:53 Clear 47 8.3 30 -1.1 51 51 ENE 7 11 30.42 1030 10 16 0.00 0.00
10:53 pm 22:53 Clear 45 7.2 29 -1.7 53 53 E 7 11 30.43 1031 10 16 0.00 0.00
11:53 pm 23:53 Clear 42 5.6 29 -1.7 59 59 NE 7 11 30.46 1031 10 16 0.00 0.00

Powered by AerisWeather